Tracking 28790 objects as of 19-Apr-2024
HD Live streaming from Space Station
objects crossing your sky now

ARIANE 5 DEB (SYLDA)

Track ARIANE 5 DEB (SYLDA) now!
10-day predictions


NORAD ID: 40735
Int'l Code: 2015-034D
Perigee: 305.9 km
Apogee: 23,992.5 km
Inclination: 3.8 °
Period: 418.0 minutes
Semi major axis: 18520 km
RCS: Unknown
Launch date: July 15, 2015
Source: France (FR)
Launch site: FRENCH GUIANA (FRGUI)

Note: This is SATELLITE DEBRIS
Your satellite tracking list
Your tracking list is empty




NASA's NSSDC Master Catalog

Two Line Element Set (TLE):
1 40735U 15034D   24109.51892674  .00023434  00000-0  81029-2 0  9998
2 40735   3.7964 205.3236 6394815 285.6342  16.1061  3.44457204 88832
Source of the keplerian elements: AFSPC